Time,TemperatureF,DewpointF,PressureIn,WindDirection,WindDirectionDegrees,WindSpeedMPH,WindSpeedGustMPH,Humidity,HourlyPrecipIn,Conditions,Clouds,dailyrainin,SolarRadiationWatts/m^2,SoftwareType,DateUTC
2013-12-01 00:22:00,38.0,21.0,-100.00,NE,50,0.0,5.0,49,0.00,,,0.00,0.000000,,2013-12-01 08:22:00,
2013-12-01 00:32:00,38.0,21.0,-100.00,NE,50,0.0,5.0,49,0.00,,,0.00,0.000000,,2013-12-01 08:32:00,
2013-12-01 00:42:00,38.0,21.0,-100.00,NE,50,0.0,5.0,49,0.00,,,0.00,0.000000,,2013-12-01 08:42:00,
2013-12-01 00:51:00,37.0,15.0,-100.00,NE,44,0.0,4.0,40,0.00,,,0.00,0.000000,,2013-12-01 08:51:00,
2013-12-01 01:21:00,37.0,15.0,-100.00,NE,44,0.0,4.0,40,0.00,,,0.00,0.000000,,2013-12-01 09:21:00,
2013-12-01 01:33:00,37.0,15.0,-100.00,NE,44,0.0,4.0,40,0.00,,,0.00,0.000000,,2013-12-01 09:33:00,
2013-12-01 01:43:00,37.0,15.0,-100.00,NE,44,0.0,4.0,40,0.00,,,0.00,0.000000,,2013-12-01 09:43:00,
2013-12-01 01:51:00,38.0,15.0,-100.00,NE,42,2.0,6.0,39,0.00,,,0.00,0.000000,,2013-12-01 09:51:00,
2013-12-01 02:22:00,38.0,15.0,-100.00,NE,42,2.0,6.0,39,0.00,,,0.00,0.000000,,2013-12-01 10:22:00,
2013-12-01 02:33:00,38.0,15.0,-100.00,NE,42,2.0,6.0,39,0.00,,,0.00,0.000000,,2013-12-01 10:33:00,
2013-12-01 02:42:00,38.0,15.0,-100.00,NE,42,2.0,6.0,39,0.00,,,0.00,0.000000,,2013-12-01 10:42:00,
2013-12-01 02:51:00,39.0,14.0,-100.00,NE,41,1.0,7.0,36,0.00,,,0.00,0.000000,,2013-12-01 10:51:00,
2013-12-01 03:22:00,39.0,14.0,-100.00,NE,41,1.0,7.0,36,0.00,,,0.00,0.000000,,2013-12-01 11:22:00,
2013-12-01 03:33:00,39.0,14.0,-100.00,NE,41,1.0,7.0,36,0.00,,,0.00,0.000000,,2013-12-01 11:33:00,
2013-12-01 03:42:00,39.0,14.0,-100.00,NE,41,1.0,7.0,36,0.00,,,0.00,0.000000,,2013-12-01 11:42:00,
2013-12-01 03:51:00,39.0,12.0,-100.00,NNE,18,4.0,6.0,33,0.00,,,0.00,0.000000,,2013-12-01 11:51:00,
2013-12-01 04:22:00,39.0,12.0,-100.00,NNE,18,4.0,6.0,33,0.00,,,0.00,0.000000,,2013-12-01 12:22:00,
2013-12-01 04:32:00,39.0,12.0,-100.00,NNE,18,4.0,6.0,33,0.00,,,0.00,0.000000,,2013-12-01 12:32:00,
2013-12-01 04:42:00,39.0,12.0,-100.00,NNE,18,4.0,6.0,33,0.00,,,0.00,0.000000,,2013-12-01 12:42:00,
2013-12-01 04:51:00,38.0,13.0,-100.00,North,0,5.0,7.0,36,0.00,,,0.00,0.000000,,2013-12-01 12:51:00,
2013-12-01 05:21:00,38.0,13.0,-100.00,North,0,5.0,7.0,36,0.00,,,0.00,0.000000,,2013-12-01 13:21:00,
2013-12-01 05:32:00,38.0,13.0,-100.00,North,0,5.0,7.0,36,0.00,,,0.00,0.000000,,2013-12-01 13:32:00,
2013-12-01 05:42:00,38.0,13.0,-100.00,North,0,5.0,7.0,36,0.00,,,0.00,0.000000,,2013-12-01 13:42:00,
2013-12-01 05:51:00,40.0,15.0,-100.00,North,2,4.0,8.0,36,0.00,,,0.00,0.000000,,2013-12-01 13:51:00,
2013-12-01 06:21:00,40.0,15.0,-100.00,North,2,4.0,8.0,36,0.00,,,0.00,0.000000,,2013-12-01 14:21:00,
2013-12-01 06:32:00,40.0,15.0,-100.00,North,2,4.0,8.0,36,0.00,,,0.00,0.000000,,2013-12-01 14:32:00,
2013-12-01 06:42:00,40.0,15.0,-100.00,North,2,4.0,8.0,36,0.00,,,0.00,0.000000,,2013-12-01 14:42:00,
2013-12-01 06:51:00,39.0,12.0,-100.00,NNE,14,4.0,7.0,33,0.00,,,0.00,0.000000,,2013-12-01 14:51:00,
2013-12-01 07:21:00,39.0,12.0,-100.00,NNE,14,4.0,7.0,33,0.00,,,0.00,0.000000,,2013-12-01 15:21:00,
2013-12-01 07:33:00,39.0,12.0,-100.00,NNE,14,4.0,7.0,33,0.00,,,0.00,0.000000,,2013-12-01 15:33:00,
2013-12-01 07:42:00,39.0,12.0,-100.00,NNE,14,4.0,7.0,33,0.00,,,0.00,0.000000,,2013-12-01 15:42:00,
2013-12-01 07:51:00,42.0,15.0,-100.00,North,11,3.0,7.0,33,0.00,,,0.00,101.000000,,2013-12-01 15:51:00,
2013-12-01 08:23:00,42.0,15.0,-100.00,North,11,3.0,7.0,33,0.00,,,0.00,101.000000,,2013-12-01 16:23:00,
2013-12-01 08:33:00,42.0,15.0,-100.00,North,11,3.0,7.0,33,0.00,,,0.00,101.000000,,2013-12-01 16:33:00,
2013-12-01 08:43:00,42.0,15.0,-100.00,North,11,3.0,7.0,33,0.00,,,0.00,101.000000,,2013-12-01 16:43:00,
2013-12-01 08:51:00,46.0,20.0,-100.00,North,2,4.0,10.0,35,0.00,,,0.00,371.000000,,2013-12-01 16:51:00,
2013-12-01 09:22:00,46.0,20.0,-100.00,North,2,4.0,10.0,35,0.00,,,0.00,371.000000,,2013-12-01 17:22:00,
2013-12-01 09:33:00,46.0,20.0,-100.00,North,2,4.0,10.0,35,0.00,,,0.00,371.000000,,2013-12-01 17:33:00,
2013-12-01 09:42:00,46.0,20.0,-100.00,North,2,4.0,10.0,35,0.00,,,0.00,371.000000,,2013-12-01 17:42:00,
2013-12-01 09:51:00,48.0,16.0,-100.00,North,10,0.0,8.0,27,0.00,,,0.00,382.000000,,2013-12-01 17:51:00,
2013-12-01 10:21:00,48.0,16.0,-100.00,North,10,0.0,8.0,27,0.00,,,0.00,382.000000,,2013-12-01 18:21:00,
2013-12-01 10:33:00,48.0,16.0,-100.00,North,10,0.0,8.0,27,0.00,,,0.00,382.000000,,2013-12-01 18:33:00,
2013-12-01 10:42:00,48.0,16.0,-100.00,North,10,0.0,8.0,27,0.00,,,0.00,382.000000,,2013-12-01 18:42:00,
2013-12-01 10:51:00,55.0,18.0,-100.00,North,7,0.0,5.0,23,0.00,,,0.00,764.000000,,2013-12-01 18:51:00,
2013-12-01 11:42:00,55.0,18.0,-100.00,North,7,0.0,5.0,23,0.00,,,0.00,764.000000,,2013-12-01 19:42:00,
2013-12-01 11:51:00,56.0,14.0,-100.00,NE,44,0.0,6.0,19,0.00,,,0.00,853.000000,,2013-12-01 19:51:00,
2013-12-01 12:42:00,56.0,14.0,-100.00,NE,44,0.0,6.0,19,0.00,,,0.00,853.000000,,2013-12-01 20:42:00,
2013-12-01 12:51:00,54.0,22.0,-100.00,ENE,61,0.0,5.0,29,0.00,,,0.00,853.000000,,2013-12-01 20:51:00,
2013-12-01 13:42:00,54.0,22.0,-100.00,ENE,61,0.0,5.0,29,0.00,,,0.00,853.000000,,2013-12-01 21:42:00,
2013-12-01 13:51:00,54.0,17.0,-100.00,North,353,1.0,5.0,23,0.00,,,0.00,762.000000,,2013-12-01 21:51:00,
2013-12-01 14:42:00,54.0,17.0,-100.00,North,353,1.0,5.0,23,0.00,,,0.00,762.000000,,2013-12-01 22:42:00,
2013-12-01 14:51:00,53.0,14.0,-100.00,North,10,0.0,5.0,21,0.00,,,0.00,580.000000,,2013-12-01 22:51:00,
2013-12-01 15:42:00,53.0,14.0,-100.00,North,10,0.0,5.0,21,0.00,,,0.00,580.000000,,2013-12-01 23:42:00,
2013-12-01 15:51:00,47.0,17.0,-100.00,NNW,342,0.0,3.0,30,0.00,,,0.00,83.000000,,2013-12-01 23:51:00,
2013-12-01 16:21:00,47.0,17.0,-100.00,NNW,342,0.0,3.0,30,0.00,,,0.00,83.000000,,2013-12-02 00:21:00,
2013-12-01 16:32:00,47.0,17.0,-100.00,NNW,342,0.0,3.0,30,0.00,,,0.00,83.000000,,2013-12-02 00:32:00,
2013-12-01 16:42:00,47.0,17.0,-100.00,NNW,342,0.0,3.0,30,0.00,,,0.00,83.000000,,2013-12-02 00:42:00,
2013-12-01 17:21:00,45.0,9.0,-100.00,North,2,0.0,0.0,23,0.00,,,0.00,19.000000,,2013-12-02 01:21:00,
2013-12-01 17:32:00,45.0,9.0,-100.00,North,2,0.0,0.0,23,0.00,,,0.00,19.000000,,2013-12-02 01:32:00,
2013-12-01 17:41:00,45.0,9.0,-100.00,North,2,0.0,0.0,23,0.00,,,0.00,19.000000,,2013-12-02 01:41:00,
2013-12-01 19:22:00,46.0,8.0,-100.00,NE,46,0.0,6.0,21,0.00,,,0.00,0.000000,,2013-12-02 03:22:00,
2013-12-01 19:33:00,46.0,8.0,-100.00,NE,46,0.0,6.0,21,0.00,,,0.00,0.000000,,2013-12-02 03:33:00,
2013-12-01 19:43:00,46.0,8.0,-100.00,NE,46,0.0,6.0,21,0.00,,,0.00,0.000000,,2013-12-02 03:43:00,